User: anonymous   Login
Location: PFO Observatory
(45.2937°N, 66.0991°W)
Time: 06:26:35
(UTC-03:00)
Language:

Cosmos 1151 Rocket - Orbit

View from above orbital plane
View from above orbital plane
View from above satellite
View from above satellite

Ground track
Ground track

The orbit data is extracted from the following two-line orbital elements,

1 11672U 80005B   17230.92584122 +.00000093 +00000-0 +74050-5 0  9999
2 11672 082.5159 020.1546 0018258 107.4705 252.8510 14.87875929011617
Epoch (UTC): 18 August 2017 22:13:12
Eccentricity: 0.0018258
inclination: 82.5159°
perigee height: 592 km
apogee height: 617 km
right ascension of ascending node: 20.1546°
argument of perigee: 107.4705°
revolutions per day: 14.87875929
mean anomaly at epoch: 252.8510°
orbit number at epoch: 1161

The dashed part of the orbit path shows where the satellite is in the earth's shadow,  

DLR